AirNav   Everest Fuels
 
 1526 users online  

MI34 McLaren Greater Lansing Hospital Heliport
Lansing, Michigan, USA

GOING TO LANSING?


FAA INFORMATION EFFECTIVE 13 AUGUST 2020

Location

FAA Identifier: MI34
Lat/Long: 42-42-10.1260N 084-33-10.9230W
42-42.168767N 084-33.182050W
42.7028128,-84.5530342
(estimated)
Elevation: 860 ft. / 262 m (estimated)
Variation: 05W (1985)
Time zone: UTC -4 (UTC -5 during Standard Time)
Zip code: 48910

Heliport Operations

Heliport use: Private use, MEDICAL USE.
Activation date: 01/1975
Control tower: no
ARTCC: CLEVELAND CENTER
FSS: LANSING FLIGHT SERVICE STATION
Attendance: UNATNDD
Wind indicator: yes
Segmented circle: no
Lights: FOR PERIMETER LGTS CALL 517-975-8000 30 MINUTES BEFORE ARRIVAL.

Heliport Communications

WX ASOS at LAN (5 nm N): 119.75 (517-908-8494)
WX AWOS-3 at TEW (10 nm SE): 119.425 (517-676-5607)
WX AWOS-3 at FPK (14 nm SW): 118.075 (517-543-2288)

Nearby radio navigation aids

VOR radial/distance  VOR name  Freq  Var
FNTr252/38.8FLINT VORTAC116.9006W
LFDr019/39.6LITCHFIELD VOR/DME111.2005W

Heliport Services

Runway Information

Helipad H1

Dimensions: 75 x 75 ft. / 23 x 23 m
Surface: concrete
Runway edge lights: PERI
GREEN LGTS.
Latitude: 42-42.168767N
Longitude: 084-33.182050W
Elevation: 860.0 ft.
Traffic pattern: leftleft

Heliport Ownership and Management from official FAA records

Ownership: Publicly-owned
Owner: MCLAREN GREATER LANSING HOSPITAL
401 W GREENLAWN AVE
LANSING, MI 48910-2819
Phone 517-975-6000
Manager: JUAN ROSA
401 W GREENLAWN AVE
LANSING, MI 48910-2819
Phone 517-975-7979

Additional Remarks

A52-H1 LAMP POST S AT 54' & TREES AT 102'; TREE SE AT 135'; PARKING LOT W WITH 10' LAMP POST AT 72'.
FOR CD CTC GREAT LAKES APCH AT 269-459-3345, WHEN APCH CLSD CTC CLEVELAND ARTCC AT 440-774-0224/0490.

Instrument Procedures

There are no published instrument procedures at MI34.

Some nearby airports with instrument procedures:

KLAN - Capital Region International Airport (5 nm N)
4D0 - Abrams Municipal Airport (9 nm NW)
KTEW - Mason Jewett Field Airport (10 nm SE)
KFPK - Fitch H Beach Airport (14 nm SW)
KRNP - Owosso Community Airport (25 nm NE)
 
Loc | Ops | Rwys | IFR | FBO | Links
Com | Nav | Svcs | Stats | Notes
Area around MI34 (McLaren Greater Lansing Hospital Heliport)
 
Road maps at: MapQuest Bing Google
 
Aerial photo
No photo
 
Sectional chart

 
Airport distance calculator
Flying to McLaren Greater Lansing Hospital Heliport? Find the distance to fly.

From to MI34

Sunrise and sunset
Times for 13-Aug-2020
 Local
(UTC-4)
 Zulu
(UTC)
Morning civil twilight06:1410:14
Sunrise06:4510:45
Sunset20:4100:41
Evening civil twilight21:1201:12

Current date and time
Zulu (UTC)  13-Aug-2020 19:48:27
Local (UTC-4)  13-Aug-2020 15:48:27
 
METAR
KLAN 
5nm N 
131853Z 06007KT 10SM CLR 29/16 A3013 RMK AO2 SLP197 T02890156
KTEW 
10nm SE 
131935Z AUTO 11003KT 10SM CLR 28/14 A3011 RMK AO2 T02810142
KFPK 
14nm SW 
131935Z AUTO 11008KT 10SM CLR 29/13 A3010 RMK AO2 T02870131
TAF
KLAN 
5nm N 
131720Z 1318/1418 06005KT P6SM FEW050 SCT250
NOTAMs
Click for the latest NOTAMs
NOTAMs are issued by the DoD/FAA and will open in a separate window not controlled by AirNav.

 

 
 

Would you like to see your business listed on this page?

 If your business provides an interesting product or service to pilots, flight crews, aircraft, or users of the McLaren Greater Lansing Hospital Heliport, you should consider listing it here.  To start the listing process, click on the button below
 
Add a business
 

Other Pages about McLaren Greater Lansing Hospital Heliport

Update a link
 
Copyright © AirNav, LLC. All rights reserved. Privacy Policy  Contact